OBJECT N, 61906

Orbit data source: Space-Track

You're viewing an Uncataloged Satellite

Recently launched and/or uncataloged satellites may have evolving metadata. Metadata may include but not limited to: Owner, Maufacturer, Bus, Motor, and Mission.

OBJECT N, 61906 is a satellite owned by Zhongke Xiguang (CN) in SSO that was launched on Mon, 11 Nov 2024 UTC via a LIJIAN-1 launch vehicle from the Jiuquan Satellite Launch Center, China (JSC). Unknown objects in Earth's orbit typically refer to objects detected orbiting the Earth but have not yet been identified or cataloged. These objects could be anything from previously untracked satellites, spent rocket stages, debris from satellite collisions, or even natural meteoroids temporarily captured by Earth's gravity.

Loading next visibility...
Identifier
61906, 2024-205N
Orbit
SSO
Country
Flag of CNCN / PRC
Related business
None
Manufacturer
XIOPM/ZXHK
Mission
Operational Commercial Imaging
Bus & Motor
MN100?, Unknown motor
Mass
~75 kg wet, ~75 kg dry
Launch date (UTC)
2024-11-11 (10 months ago)
Launch vehicle
LIJIAN-1
Launch site
Jiuquan Satellite Launch Center, China (JSC)
Object type
Unknown
Shape & HBR
Box + 2 Pan, 0.5 m
Radar Cross Section
0.195 m², Medium (>0.1 m² and < 1m²)

Expand to show TLE details & history
Last TLE update: 18 hours ago

TLE from 18 hours ago
0 OBJECT N
1 61906U 24205N   25261.31868667  .00012362  00000-0  48873-3 0  9993
2 61906  97.4445 336.2824 0009860 281.8405  78.1727 15.25581080 47251
Epoch: 2025-09-18T07:38Z
TLE epoch observation values (Epoch: 2025-09-18T07:38:54.528Z)
Latitude
-0.00001°
Longitude
-135.9268°
Altitude
490.756 km
Speed
7.62 km/s
True Right ascension
22h 25m 07s
True Declination
0° 00' 00"
Sunlit
Object was in full shadow at epoch
Visualization orbit readout
Latitude
Unknown
Longitude
Unknown
Altitude
Unknown
Speed
Unknown
Apparent Right ascension
Unknown
Apparent Declination
Unknown
Sunlit
N/A
Visualization observer readout
Local Sidereal Time
18:27:41
Azimuth
Unknown
Elevation
Unknown
Doppler factor
Unknown
Orbital elements
Apogee altitude
492.769 km
Perigee altitude
479.233 km
Semi-major axis
6,864.138 km
Eccentricity
0.00099
Inclination
97.4445°
RAAN
336.2824°
Arg. of periapsis
281.8405°
True anomaly
78.28332°
Mean anomaly
78.1727°
Eccentric anomaly
78.22801°
Mean motion
3.81649 °/min
Orbital period
94.33 mins
BSTAR
0.00048873
Loading maneuver chart data...
Computing Atmospheric mass density...
Loading historical data...
Loading historical data...
Loading historical data...
Loading historical data...
Loading historical data...
Loading historical data...
Loading historical data...

Documentation

Showing up to 5 results
|